Regional Weather Roundup
Issued by NWS

Home | Current Version | Previous Version | Graphics & Text | Print | Product List | Glossary On
Versions: 1 2 3 4 5 6 7 8 9 10 11 12 13 14 15 16 17 18 19 20 21 22 23 24 25 26 27 28 29 30 31 32 33 34 35 36 37 38 39 40 41 42 43 44 45 46 47 48 49 50
000
ASUS45 KCYS 171610
RWRWY

WYOMING REGIONAL WEATHER ROUNDUP
NATIONAL WEATHER SERVICE CHEYENNE WY
1000 AM MDT WED SEP 17 2014

NOTE:  "FAIR" INDICATES FEW OR NO CLOUDS BELOW 12,000 FEET
WITH NO SIGNIFICANT WEATHER AND/OR OBSTRUCTIONS TO VISIBILITY.

WYZ001-171700-
YELLOWSTONE NATIONAL PARK

CITY           SKY/WX    TMP DP  RH WIND       PRES   REMARKS
LK YELLOWSTONE   N/A     52  43  71 SE3       30.26S
W YELLOWSTONE  NOT AVBL

$$
WYZ002>013-054>058-071-098>099-171700-
NORTHERN WYOMING

CITY           SKY/WX    TMP DP  RH WIND       PRES   REMARKS
JACKSON        SUNNY     54  45  71 SW3       30.20S
CODY           SUNNY    N/A N/A N/A SW10      30.04F
GREYBULL       SUNNY     64  49  57 SE5       30.00S
WORLAND        MOSUNNY   63  47  55 N3        30.02S
SHERIDAN       MOSUNNY   77  49  37 NE3       29.96S
BUFFALO        LGT RAIN  73  45  36 S9        30.04F
GILLETTE       MOSUNNY   75  43  31 SW12      29.99F
HULETT         FAIR      68  45  42 MISG      30.00
NEWCASTLE      FAIR      70  41  35 S3        30.02

$$
WYZ014>020-022>026-101>103-171700-
CENTRAL WYOMING

CITY           SKY/WX    TMP DP  RH WIND       PRES   REMARKS
BIG PINEY      PTSUNNY   61  49  64 E10       30.25F
PINEDALE       LGT RAIN  52  46  82 N15G22    30.27F
DUBOIS         FAIR      64  37  36 W33G40    30.16F
LANDER         CLOUDY    61  44  53 SE6       30.10S
RIVERTON       CLOUDY    64  45  49 CALM      30.11R
CASPER         MOSUNNY   75  37  25 SW12      30.08S
DOUGLAS        MOSUNNY   71  41  33 VRB5      30.07F

$$
WYZ021-027>030-104>119-171700-
SOUTHERN WYOMING

CITY           SKY/WX    TMP DP  RH WIND       PRES   REMARKS
EVANSTON       SUNNY     67  41  38 S8        30.21R
KEMMERER       MOSUNNY   55  41  58 N14       30.26R
FORT BRIDGER   FAIR      57  42  58 CALM      30.24R
ROCK SPRINGS   MOSUNNY   64  37  36 CALM      30.19S
DIXON          FAIR      65  42  42 S5        30.22F
RAWLINS        SUNNY     66  37  34 S3        30.20S
SARATOGA       FAIR      64  36  34 SE13      30.23S
LARAMIE        SUNNY     67  37  33 S5        30.23S
CHEYENNE       MOSUNNY   75  42  30 VRB5      30.14S
TORRINGTON     SUNNY     71  47  42 NW8       30.02S
PINE BLUFFS    FAIR      73  39  29 NW6       30.08F

$$



USA.gov is the U.S. government's official web portal to all federal, state and local government web resources and services.